Time,TemperatureF,DewpointF,PressureIn,WindDirection,WindDirectionDegrees,WindSpeedMPH,WindSpeedGustMPH,Humidity,HourlyPrecipIn,Conditions,Clouds,dailyrainin,SoftwareType,DateUTC
2013-04-10 00:02:00,50.0,-99.9,30.02,WNW,299,0.0,0.0,-999,0.00,,,0.00,,2013-04-10 07:02:00,
2013-04-10 00:12:00,50.0,-99.9,30.02,WNW,299,0.0,0.0,-999,0.00,,,0.00,,2013-04-10 07:12:00,
2013-04-10 00:23:00,49.0,-99.9,30.02,WNW,299,0.0,0.0,-999,0.00,,,0.00,,2013-04-10 07:23:00,
2013-04-10 00:33:00,49.0,-99.9,30.02,WNW,299,0.0,0.0,-999,0.00,,,0.00,,2013-04-10 07:33:00,
2013-04-10 00:43:00,49.0,-99.9,30.02,WNW,299,0.0,0.0,-999,0.00,,,0.00,,2013-04-10 07:43:00,
2013-04-10 00:52:00,49.0,-99.9,30.02,WNW,299,0.0,0.0,-999,0.00,,,0.00,,2013-04-10 07:52:00,
2013-04-10 01:02:00,46.0,-99.9,30.02,South,185,0.0,0.0,-999,0.00,,,0.00,,2013-04-10 08:02:00,
2013-04-10 01:12:00,46.0,-99.9,30.02,South,185,0.0,0.0,-999,0.00,,,0.00,,2013-04-10 08:12:00,
2013-04-10 01:22:00,46.0,-99.9,30.02,South,185,0.0,0.0,-999,0.00,,,0.00,,2013-04-10 08:22:00,
2013-04-10 01:32:00,45.0,-99.9,30.02,South,185,0.0,0.0,-999,0.00,,,0.00,,2013-04-10 08:32:00,
2013-04-10 01:43:00,45.0,-99.9,30.02,South,185,0.0,0.0,-999,0.00,,,0.00,,2013-04-10 08:43:00,
2013-04-10 01:52:00,47.0,-99.9,30.02,South,185,0.0,0.0,-999,0.00,,,0.00,,2013-04-10 08:52:00,
2013-04-10 02:02:00,48.0,-99.9,30.01,WSW,257,0.0,3.0,-999,0.00,,,0.00,,2013-04-10 09:02:00,
2013-04-10 02:12:00,48.0,-99.9,30.01,WSW,253,0.0,0.0,-999,0.00,,,0.00,,2013-04-10 09:12:00,
2013-04-10 02:22:00,48.0,-99.9,30.01,WSW,253,0.0,0.0,-999,0.00,,,0.00,,2013-04-10 09:22:00,
2013-04-10 02:33:00,49.0,-99.9,30.01,West,278,0.0,3.0,-999,0.00,,,0.00,,2013-04-10 09:33:00,
2013-04-10 02:43:00,48.0,-99.9,30.01,West,260,0.0,0.0,-999,0.00,,,0.00,,2013-04-10 09:43:00,
2013-04-10 02:53:00,48.0,-99.9,30.01,West,260,0.0,0.0,-999,0.00,,,0.00,,2013-04-10 09:53:00,
2013-04-10 03:03:00,48.0,-99.9,30.02,West,260,0.0,0.0,-999,0.00,,,0.00,,2013-04-10 10:03:00,
2013-04-10 03:13:00,48.0,-99.9,30.02,West,260,0.0,0.0,-999,0.00,,,0.00,,2013-04-10 10:13:00,
2013-04-10 03:23:00,48.0,-99.9,30.02,West,260,0.0,0.0,-999,0.00,,,0.00,,2013-04-10 10:23:00,
2013-04-10 03:33:00,47.0,-99.9,30.02,West,260,0.0,0.0,-999,0.00,,,0.00,,2013-04-10 10:33:00,
2013-04-10 03:43:00,47.0,-99.9,30.02,West,260,0.0,0.0,-999,0.00,,,0.00,,2013-04-10 10:43:00,
2013-04-10 03:53:00,47.0,-99.9,30.02,West,260,0.0,0.0,-999,0.00,,,0.00,,2013-04-10 10:53:00,
2013-04-10 04:03:00,47.0,-99.9,30.02,West,271,0.0,0.0,-999,0.00,,,0.00,,2013-04-10 11:03:00,
2013-04-10 04:12:00,47.0,-99.9,30.02,West,271,0.0,0.0,-999,0.00,,,0.00,,2013-04-10 11:12:00,
2013-04-10 04:22:00,47.0,-99.9,30.02,SW,234,0.0,0.0,-999,0.00,,,0.00,,2013-04-10 11:22:00,
2013-04-10 04:32:00,45.0,-99.9,30.02,SW,230,1.0,0.0,-999,0.00,,,0.00,,2013-04-10 11:32:00,
2013-04-10 04:42:00,45.0,-99.9,30.02,SW,230,1.0,0.0,-999,0.00,,,0.00,,2013-04-10 11:42:00,
2013-04-10 04:53:00,46.0,-99.9,30.03,SW,227,0.0,0.0,-999,0.00,,,0.00,,2013-04-10 11:53:00,
2013-04-10 05:03:00,46.0,-99.9,30.04,SW,225,0.0,0.0,-999,0.00,,,0.00,,2013-04-10 12:03:00,
2013-04-10 05:12:00,46.0,-99.9,30.04,SW,225,0.0,0.0,-999,0.00,,,0.00,,2013-04-10 12:12:00,
2013-04-10 05:23:00,46.0,-99.9,30.05,SW,219,0.0,0.0,-999,0.00,,,0.00,,2013-04-10 12:23:00,
2013-04-10 05:33:00,43.0,-99.9,30.05,SSW,209,2.0,7.0,-999,0.00,,,0.00,,2013-04-10 12:33:00,
2013-04-10 05:43:00,43.0,-99.9,30.05,SSW,209,2.0,7.0,-999,0.00,,,0.00,,2013-04-10 12:43:00,
2013-04-10 05:52:00,42.0,-99.9,30.05,South,189,1.0,0.0,-999,0.00,,,0.00,,2013-04-10 12:52:00,
2013-04-10 06:02:00,41.0,-99.9,30.06,South,181,0.0,0.0,-999,0.00,,,0.00,,2013-04-10 13:02:00,
2013-04-10 06:12:00,41.0,-99.9,30.06,South,181,0.0,0.0,-999,0.00,,,0.00,,2013-04-10 13:12:00,
2013-04-10 06:23:00,42.0,-99.9,30.06,South,181,0.0,0.0,-999,0.00,,,0.00,,2013-04-10 13:23:00,
2013-04-10 06:33:00,42.0,-99.9,30.08,South,181,0.0,0.0,-999,0.00,,,0.00,,2013-04-10 13:33:00,
2013-04-10 06:43:00,42.0,-99.9,30.08,South,181,0.0,0.0,-999,0.00,,,0.00,,2013-04-10 13:43:00,
2013-04-10 06:53:00,41.0,-99.9,30.08,South,175,0.0,0.0,-999,0.00,,,0.00,,2013-04-10 13:53:00,
2013-04-10 07:02:00,43.0,-99.9,30.09,SSE,163,0.0,1.0,-999,0.00,,,0.00,,2013-04-10 14:02:00,
2013-04-10 07:13:00,45.0,-99.9,30.10,SSE,165,0.0,1.0,-999,0.00,,,0.00,,2013-04-10 14:13:00,
2013-04-10 07:22:00,45.0,-99.9,30.10,SSE,165,0.0,1.0,-999,0.00,,,0.00,,2013-04-10 14:22:00,
2013-04-10 07:33:00,45.0,-99.9,30.10,SSE,165,0.0,0.0,-999,0.00,,,0.00,,2013-04-10 14:33:00,
2013-04-10 07:42:00,46.0,-99.9,30.10,SE,146,0.0,0.0,-999,0.00,,,0.00,,2013-04-10 14:42:00,
2013-04-10 07:52:00,46.0,-99.9,30.10,SE,146,0.0,0.0,-999,0.00,,,0.00,,2013-04-10 14:52:00,
2013-04-10 08:03:00,47.0,-99.9,30.09,SSW,192,0.0,0.0,-999,0.00,,,0.00,,2013-04-10 15:03:00,
2013-04-10 08:12:00,49.0,-99.9,30.10,SE,146,1.0,3.0,-999,0.00,,,0.00,,2013-04-10 15:12:00,
2013-04-10 08:23:00,49.0,-99.9,30.10,SE,146,1.0,3.0,-999,0.00,,,0.00,,2013-04-10 15:23:00,
2013-04-10 08:33:00,51.0,-99.9,30.09,ESE,119,0.0,0.0,-999,0.00,,,0.00,,2013-04-10 15:33:00,
2013-04-10 08:43:00,51.0,-99.9,30.09,ESE,119,0.0,0.0,-999,0.00,,,0.00,,2013-04-10 15:43:00,
2013-04-10 08:53:00,51.0,-99.9,30.09,ESE,119,0.0,0.0,-999,0.00,,,0.00,,2013-04-10 15:53:00,
2013-04-10 09:03:00,54.0,-99.9,30.09,ESE,119,0.0,0.0,-999,0.00,,,0.00,,2013-04-10 16:03:00,
2013-04-10 09:13:00,54.0,-99.9,30.09,ESE,119,0.0,0.0,-999,0.00,,,0.00,,2013-04-10 16:13:00,
2013-04-10 09:23:00,54.0,-99.9,30.09,ESE,119,0.0,0.0,-999,0.00,,,0.00,,2013-04-10 16:23:00,
2013-04-10 09:33:00,54.0,-99.9,30.09,SW,215,0.0,0.0,-999,0.00,,,0.00,,2013-04-10 16:33:00,
2013-04-10 09:43:00,54.0,-99.9,30.09,SW,215,0.0,0.0,-999,0.00,,,0.00,,2013-04-10 16:43:00,
2013-04-10 09:53:00,56.0,-99.9,30.09,SW,232,1.0,4.0,-999,0.00,,,0.00,,2013-04-10 16:53:00,
2013-04-10 10:03:00,56.0,-99.9,30.09,WSW,246,7.0,10.0,-999,0.00,,,0.00,,2013-04-10 17:03:00,
2013-04-10 10:13:00,58.0,-99.9,30.10,WSW,240,2.0,6.0,-999,0.00,,,0.00,,2013-04-10 17:13:00,
2013-04-10 10:23:00,58.0,-99.9,30.10,WSW,240,2.0,6.0,-999,0.00,,,0.00,,2013-04-10 17:23:00,
2013-04-10 10:34:00,59.0,-99.9,30.10,NW,316,2.0,9.0,-999,0.00,,,0.00,,2013-04-10 17:34:00,
2013-04-10 10:43:00,59.0,-99.9,30.10,NW,316,2.0,9.0,-999,0.00,,,0.00,,2013-04-10 17:43:00,
2013-04-10 10:53:00,58.0,-99.9,30.10,WNW,282,0.0,3.0,-999,0.00,,,0.00,,2013-04-10 17:53:00,
2013-04-10 11:03:00,59.0,-99.9,30.10,NW,320,0.0,4.0,-999,0.00,,,0.00,,2013-04-10 18:03:00,
2013-04-10 11:12:00,59.0,-99.9,30.10,NW,320,0.0,4.0,-999,0.00,,,0.00,,2013-04-10 18:12:00,
2013-04-10 11:23:00,60.0,-99.9,30.09,WSW,240,0.0,3.0,-999,0.00,,,0.00,,2013-04-10 18:23:00,
2013-04-10 11:33:00,62.0,-99.9,30.09,WNW,296,1.0,4.0,-999,0.00,,,0.00,,2013-04-10 18:33:00,
2013-04-10 11:43:00,62.0,-99.9,30.09,WNW,296,1.0,4.0,-999,0.00,,,0.00,,2013-04-10 18:43:00,
2013-04-10 11:53:00,61.0,-99.9,30.09,West,265,8.0,14.0,-999,0.00,,,0.00,,2013-04-10 18:53:00,
2013-04-10 12:03:00,61.0,-99.9,30.09,NW,312,6.0,13.0,-999,0.00,,,0.00,,2013-04-10 19:03:00,
2013-04-10 12:13:00,62.0,-99.9,30.09,SW,230,2.0,11.0,-999,0.00,,,0.00,,2013-04-10 19:13:00,
2013-04-10 12:22:00,62.0,-99.9,30.09,SW,230,2.0,11.0,-999,0.00,,,0.00,,2013-04-10 19:22:00,
2013-04-10 12:33:00,62.0,-99.9,30.08,WSW,258,8.0,18.0,-999,0.00,,,0.00,,2013-04-10 19:33:00,
2013-04-10 12:42:00,62.0,-99.9,30.08,NW,315,0.0,6.0,-999,0.00,,,0.00,,2013-04-10 19:42:00,
2013-04-10 12:53:00,62.0,-99.9,30.08,NW,315,0.0,6.0,-999,0.00,,,0.00,,2013-04-10 19:53:00,
2013-04-10 13:03:00,62.0,-99.9,30.07,WNW,282,6.0,13.0,-999,0.00,,,0.00,,2013-04-10 20:03:00,
2013-04-10 13:12:00,62.0,-99.9,30.07,North,4,7.0,12.0,-999,0.00,,,0.00,,2013-04-10 20:12:00,
2013-04-10 13:23:00,62.0,-99.9,30.07,North,4,7.0,12.0,-999,0.00,,,0.00,,2013-04-10 20:23:00,
2013-04-10 13:43:00,62.0,-99.9,30.06,WNW,295,4.0,9.0,-999,0.00,,,0.00,,2013-04-10 20:43:00,
2013-04-10 13:53:00,62.0,-99.9,30.06,WNW,295,4.0,9.0,-999,0.00,,,0.00,,2013-04-10 20:53:00,
2013-04-10 14:03:00,61.0,-99.9,30.06,West,261,1.0,6.0,-999,0.00,,,0.00,,2013-04-10 21:03:00,
2013-04-10 14:13:00,62.0,-99.9,30.05,NNW,336,5.0,7.0,-999,0.00,,,0.00,,2013-04-10 21:13:00,
2013-04-10 14:22:00,62.0,-99.9,30.05,NNW,336,5.0,7.0,-999,0.00,,,0.00,,2013-04-10 21:22:00,
2013-04-10 14:33:00,62.0,-99.9,30.05,West,271,4.0,6.0,-999,0.00,,,0.00,,2013-04-10 21:33:00,
2013-04-10 14:43:00,62.0,-99.9,30.05,West,271,4.0,6.0,-999,0.00,,,0.00,,2013-04-10 21:43:00,
2013-04-10 14:53:00,62.0,-99.9,30.05,WNW,299,2.0,6.0,-999,0.00,,,0.00,,2013-04-10 21:53:00,
2013-04-10 15:03:00,63.0,-99.9,30.04,WSW,254,3.0,6.0,-999,0.00,,,0.00,,2013-04-10 22:03:00,
2013-04-10 15:13:00,64.0,-99.9,30.03,WNW,286,2.0,9.0,-999,0.00,,,0.00,,2013-04-10 22:13:00,
2013-04-10 15:23:00,64.0,-99.9,30.03,WNW,286,2.0,9.0,-999,0.00,,,0.00,,2013-04-10 22:23:00,
2013-04-10 15:34:00,63.0,-99.9,30.03,West,264,3.0,5.0,-999,0.00,,,0.00,,2013-04-10 22:34:00,
2013-04-10 15:43:00,63.0,-99.9,30.03,West,264,3.0,5.0,-999,0.00,,,0.00,,2013-04-10 22:43:00,
2013-04-10 15:53:00,64.0,-99.9,30.03,West,260,4.0,11.0,-999,0.00,,,0.00,,2013-04-10 22:53:00,
2013-04-10 16:03:00,63.0,-99.9,30.03,West,277,4.0,13.0,-999,0.00,,,0.00,,2013-04-10 23:03:00,
2013-04-10 16:12:00,64.0,-99.9,30.03,West,279,0.0,0.0,-999,0.00,,,0.00,,2013-04-10 23:12:00,
2013-04-10 16:22:00,64.0,-99.9,30.03,West,279,0.0,0.0,-999,0.00,,,0.00,,2013-04-10 23:22:00,
2013-04-10 16:33:00,64.0,-99.9,30.03,West,261,2.0,3.0,-999,0.00,,,0.00,,2013-04-10 23:33:00,
2013-04-10 16:43:00,64.0,-99.9,30.03,West,261,2.0,3.0,-999,0.00,,,0.00,,2013-04-10 23:43:00,
2013-04-10 16:53:00,64.0,-99.9,30.03,West,271,2.0,7.0,-999,0.00,,,0.00,,2013-04-10 23:53:00,
2013-04-10 17:02:00,64.0,-99.9,30.03,WNW,284,3.0,10.0,-999,0.00,,,0.00,,2013-04-11 00:02:00,
2013-04-10 17:13:00,64.0,-99.9,30.04,NW,320,1.0,5.0,-999,0.00,,,0.00,,2013-04-11 00:13:00,
2013-04-10 17:23:00,64.0,-99.9,30.04,NW,320,1.0,5.0,-999,0.00,,,0.00,,2013-04-11 00:23:00,
2013-04-10 17:32:00,63.0,-99.9,30.04,WSW,258,4.0,6.0,-999,0.00,,,0.00,,2013-04-11 00:32:00,
2013-04-10 17:43:00,64.0,-99.9,30.04,West,277,1.0,3.0,-999,0.00,,,0.00,,2013-04-11 00:43:00,
2013-04-10 17:53:00,64.0,-99.9,30.04,West,277,1.0,3.0,-999,0.00,,,0.00,,2013-04-11 00:53:00,
2013-04-10 18:02:00,63.0,-99.9,30.04,NNW,337,1.0,3.0,-999,0.00,,,0.00,,2013-04-11 01:02:00,
2013-04-10 18:12:00,62.0,-99.9,30.05,West,267,1.0,5.0,-999,0.00,,,0.00,,2013-04-11 01:12:00,
2013-04-10 18:22:00,62.0,-99.9,30.05,West,267,1.0,5.0,-999,0.00,,,0.00,,2013-04-11 01:22:00,
2013-04-10 18:33:00,60.0,-99.9,30.05,WNW,284,0.0,5.0,-999,0.00,,,0.00,,2013-04-11 01:33:00,
2013-04-10 18:42:00,59.0,-99.9,30.06,NW,320,0.0,4.0,-999,0.00,,,0.00,,2013-04-11 01:42:00,
2013-04-10 18:52:00,59.0,-99.9,30.06,NW,320,0.0,4.0,-999,0.00,,,0.00,,2013-04-11 01:52:00,
2013-04-10 19:03:00,58.0,-99.9,30.06,SW,222,0.0,6.0,-999,0.00,,,0.00,,2013-04-11 02:03:00,
2013-04-10 19:12:00,56.0,-99.9,30.07,West,278,0.0,5.0,-999,0.00,,,0.00,,2013-04-11 02:12:00,
2013-04-10 19:22:00,56.0,-99.9,30.07,West,278,0.0,5.0,-999,0.00,,,0.00,,2013-04-11 02:22:00,
2013-04-10 19:32:00,56.0,-99.9,30.08,WNW,282,0.0,3.0,-999,0.00,,,0.00,,2013-04-11 02:32:00,
2013-04-10 19:42:00,56.0,-99.9,30.08,WNW,282,0.0,3.0,-999,0.00,,,0.00,,2013-04-11 02:42:00,
2013-04-10 19:53:00,56.0,-99.9,30.08,North,7,0.0,0.0,-999,0.00,,,0.00,,2013-04-11 02:53:00,
2013-04-10 20:02:00,56.0,-99.9,30.09,West,272,0.0,0.0,-999,0.00,,,0.00,,2013-04-11 03:02:00,
2013-04-10 20:12:00,55.0,-99.9,30.10,West,272,0.0,0.0,-999,0.00,,,0.00,,2013-04-11 03:12:00,
2013-04-10 20:22:00,55.0,-99.9,30.10,West,272,0.0,0.0,-999,0.00,,,0.00,,2013-04-11 03:22:00,
2013-04-10 20:33:00,56.0,-99.9,30.11,West,272,0.0,0.0,-999,0.00,,,0.00,,2013-04-11 03:33:00,
2013-04-10 20:43:00,54.0,-99.9,30.12,West,272,0.0,0.0,-999,0.00,,,0.00,,2013-04-11 03:43:00,
2013-04-10 20:54:00,54.0,-99.9,30.12,West,272,0.0,0.0,-999,0.00,,,0.00,,2013-04-11 03:54:00,
2013-04-10 21:03:00,54.0,-99.9,30.12,West,272,0.0,0.0,-999,0.00,,,0.00,,2013-04-11 04:03:00,
2013-04-10 21:13:00,53.0,-99.9,30.13,West,272,0.0,0.0,-999,0.00,,,0.00,,2013-04-11 04:13:00,
2013-04-10 21:23:00,53.0,-99.9,30.13,West,272,0.0,0.0,-999,0.00,,,0.00,,2013-04-11 04:23:00,
2013-04-10 21:33:00,53.0,-99.9,30.14,West,272,0.0,0.0,-999,0.00,,,0.00,,2013-04-11 04:33:00,
2013-04-10 21:43:00,53.0,-99.9,30.14,West,272,0.0,0.0,-999,0.00,,,0.00,,2013-04-11 04:43:00,
2013-04-10 21:53:00,53.0,-99.9,30.14,West,272,0.0,0.0,-999,0.00,,,0.00,,2013-04-11 04:53:00,
2013-04-10 22:03:00,52.0,-99.9,30.14,WSW,248,0.0,1.0,-999,0.00,,,0.00,,2013-04-11 05:03:00,
2013-04-10 22:13:00,52.0,-99.9,30.14,WSW,248,0.0,0.0,-999,0.00,,,0.00,,2013-04-11 05:13:00,
2013-04-10 22:23:00,52.0,-99.9,30.14,WSW,248,0.0,0.0,-999,0.00,,,0.00,,2013-04-11 05:23:00,
2013-04-10 22:32:00,52.0,-99.9,30.14,WSW,248,0.0,0.0,-999,0.00,,,0.00,,2013-04-11 05:32:00,
2013-04-10 22:42:00,52.0,-99.9,30.14,WSW,248,0.0,0.0,-999,0.00,,,0.00,,2013-04-11 05:42:00,
2013-04-10 22:52:00,52.0,-99.9,30.14,WSW,248,0.0,0.0,-999,0.00,,,0.00,,2013-04-11 05:52:00,
2013-04-10 23:02:00,51.0,-99.9,30.13,WSW,248,0.0,0.0,-999,0.00,,,0.00,,2013-04-11 06:02:00,
2013-04-10 23:12:00,51.0,-99.9,30.13,WSW,248,0.0,0.0,-999,0.00,,,0.00,,2013-04-11 06:12:00,
2013-04-10 23:22:00,52.0,-99.9,30.13,WSW,248,0.0,0.0,-999,0.00,,,0.00,,2013-04-11 06:22:00,
2013-04-10 23:32:00,50.0,-99.9,30.14,WSW,248,0.0,0.0,-999,0.00,,,0.00,,2013-04-11 06:32:00,
2013-04-10 23:42:00,50.0,-99.9,30.14,WSW,248,0.0,0.0,-999,0.00,,,0.00,,2013-04-11 06:42:00,
2013-04-10 23:53:00,50.0,-99.9,30.14,WSW,248,0.0,0.0,-999,0.00,,,0.00,,2013-04-11 06:53:00,